Regional Weather Roundup
Issued by NWS Charleston, WV

Home | Current Version | Previous Version | Text Only | Print | Product List | Glossary On
Versions: 1 2 3 4 5 6 7 8 9 10 11 12 13 14 15 16 17 18 19 20 21 22 23 24 25 26 27 28 29 30 31 32 33 34 35 36 37 38 39 40 41 42 43 44 45 46 47 48 49 50
000
ASUS41 KRLX 061510
RWRRLX
West Virginia Regional Weather Roundup
National Weather Service Charleston WV
1000 AM EST FRI MAR 06 2015

Note: "fair" indicates few or no clouds below 12,000 feet with no
significant weather and/or obstructions to visibility.

WVZ003-061600-
Northern Panhandle of West Virginia

CITY           SKY/WX    TMP DP  RH WIND       PRES   REMARKS
WHEELING       SUNNY     11   5  77 S5        30.52R WCI   3
$$

WVZ009-061600-
Northwest West Virginia

CITY           SKY/WX    TMP DP  RH WIND       PRES   REMARKS
PARKERSBURG    SUNNY     11   9  92 CALM      30.59S
$$

WVZ006-061600-
Western West Virginia

CITY           SKY/WX    TMP DP  RH WIND       PRES   REMARKS
HUNTINGTON     SUNNY     14  14 100 CALM      30.57R
$$

WVZ015-061600-
West Central West Virginia

CITY           SKY/WX    TMP DP  RH WIND       PRES   REMARKS
CHARLESTON     MOSUNNY   16  13  88 CALM      30.53F
$$

WVZ022-031-061600-
North Central West Virginia

CITY           SKY/WX    TMP DP  RH WIND       PRES   REMARKS
CLARKSBURG     SUNNY    N/A N/A N/A W3        30.52F
MORGANTOWN     SUNNY     12   8  84 CALM      30.52F
$$

WVZ025-035-042-045-061600-
Southern West Virginia

CITY           SKY/WX    TMP DP  RH WIND       PRES   REMARKS
BECKLEY        SUNNY     15  13  91 CALM      30.39S
LOGAN          CLOUDY    18  12  79 CALM      30.43
BLUEFIELD      SUNNY     17   6  62 E6        30.36S WCI   9
LEWISBURG      SUNNY     13   9  82 CALM      30.42S
$$

WVZ047-061600-
Northern Mountains of West Virginia

CITY           SKY/WX    TMP DP  RH WIND       PRES   REMARKS
ELKINS         FLURRIES  10   6  84 CALM      30.44F
$$

WVZ052-061600-
Eastern Panhandle of West Virginia

CITY           SKY/WX    TMP DP  RH WIND       PRES   REMARKS
MARTINSBURG    SUNNY     17   0  47 NW3       30.60R HAZE
PETERSBURG     SUNNY    N/A N/A N/A N3        30.57F
$$



USA.gov is the U.S. government's official web portal to all federal, state and local government web resources and services.